Time,TemperatureF,DewpointF,PressureIn,WindDirection,WindDirectionDegrees,WindSpeedMPH,WindSpeedGustMPH,Humidity,HourlyPrecipIn,Conditions,Clouds,dailyrainin,SoftwareType,DateUTC
2013-03-09 00:00:00,36.5,22.7,30.15,North,2,0.0,3.0,57,0.00,,,0.00,WeatherCatV1.10B1784,2013-03-09 05:00:00,
2013-03-09 00:05:00,36.5,23.1,30.15,North,2,0.0,5.0,58,0.00,,,0.00,WeatherCatV1.10B1784,2013-03-09 05:05:00,
2013-03-09 00:10:00,36.5,22.7,30.15,North,2,2.0,7.0,57,0.00,,,0.00,WeatherCatV1.10B1784,2013-03-09 05:10:00,
2013-03-09 00:15:00,36.4,22.6,30.15,North,2,3.0,6.0,57,0.00,,,0.00,WeatherCatV1.10B1784,2013-03-09 05:15:00,
2013-03-09 00:20:00,36.4,22.6,30.15,North,2,0.0,3.0,57,0.00,,,0.00,WeatherCatV1.10B1784,2013-03-09 05:20:00,
2013-03-09 00:25:00,36.1,22.8,30.15,North,2,1.0,3.0,58,0.00,,,0.00,WeatherCatV1.10B1784,2013-03-09 05:25:00,
2013-03-09 00:30:00,35.7,22.8,30.15,North,2,0.0,3.0,59,0.00,,,0.00,WeatherCatV1.10B1784,2013-03-09 05:30:00,
2013-03-09 00:35:00,35.5,21.8,30.15,North,2,1.0,3.0,57,0.00,,,0.00,WeatherCatV1.10B1784,2013-03-09 05:35:00,
2013-03-09 00:40:00,35.8,22.1,30.16,North,2,1.0,5.0,57,0.00,,,0.00,WeatherCatV1.10B1784,2013-03-09 05:40:00,
2013-03-09 00:45:00,35.7,22.0,30.16,North,2,3.0,5.0,57,0.00,,,0.00,WeatherCatV1.10B1784,2013-03-09 05:45:00,
2013-03-09 00:50:00,35.7,22.0,30.15,North,2,3.0,5.0,57,0.00,,,0.00,WeatherCatV1.10B1784,2013-03-09 05:50:00,
2013-03-09 00:55:00,35.5,22.2,30.16,North,2,3.0,5.0,58,0.00,,,0.00,WeatherCatV1.10B1784,2013-03-09 05:55:00,
2013-03-09 01:00:00,35.5,22.2,30.16,North,2,2.0,5.0,58,0.00,,,0.00,WeatherCatV1.10B1784,2013-03-09 06:00:00,
2013-03-09 01:05:00,35.5,22.2,30.16,North,2,0.0,3.0,58,0.00,,,0.00,WeatherCatV1.10B1784,2013-03-09 06:05:00,
2013-03-09 01:10:00,35.4,22.1,30.15,North,2,2.0,5.0,58,0.00,,,0.00,WeatherCatV1.10B1784,2013-03-09 06:10:00,
2013-03-09 01:15:00,35.7,22.8,30.15,North,2,1.0,3.0,59,0.00,,,0.00,WeatherCatV1.10B1784,2013-03-09 06:15:00,
2013-03-09 01:20:00,35.5,22.2,30.15,North,2,1.0,5.0,58,0.00,,,0.00,WeatherCatV1.10B1784,2013-03-09 06:20:00,
2013-03-09 01:25:00,35.4,22.1,30.15,North,2,3.0,3.0,58,0.00,,,0.00,WeatherCatV1.10B1784,2013-03-09 06:25:00,
2013-03-09 01:30:00,35.3,22.0,30.15,North,2,0.0,5.0,58,0.00,,,0.00,WeatherCatV1.10B1784,2013-03-09 06:30:00,
2013-03-09 01:35:00,35.2,21.9,30.15,North,2,1.0,3.0,58,0.00,,,0.00,WeatherCatV1.10B1784,2013-03-09 06:35:00,
2013-03-09 01:40:00,35.2,21.9,30.15,North,2,2.0,3.0,58,0.00,,,0.00,WeatherCatV1.10B1784,2013-03-09 06:40:00,
2013-03-09 01:45:00,35.2,21.5,30.15,North,2,2.0,5.0,57,0.00,,,0.00,WeatherCatV1.10B1784,2013-03-09 06:45:00,
2013-03-09 01:50:00,35.3,21.6,30.15,North,2,5.0,5.0,57,0.00,,,0.00,WeatherCatV1.10B1784,2013-03-09 06:50:00,
2013-03-09 01:52:00,35.3,21.2,30.15,North,2,0.0,6.0,56,0.00,,,0.00,WeatherCatV1.10B1784,2013-03-09 06:52:00,
2013-03-09 01:57:00,35.5,21.8,30.15,North,2,5.0,5.0,57,0.00,,,0.00,WeatherCatV1.10B1784,2013-03-09 06:57:00,
2013-03-09 02:02:00,35.5,21.8,30.14,North,2,2.0,5.0,57,0.00,,,0.00,WeatherCatV1.10B1784,2013-03-09 07:02:00,
2013-03-09 02:07:00,35.6,21.5,30.14,North,2,3.0,5.0,56,0.00,,,0.00,WeatherCatV1.10B1784,2013-03-09 07:07:00,
2013-03-09 02:12:00,35.6,21.5,30.14,North,2,2.0,3.0,56,0.00,,,0.00,WeatherCatV1.10B1784,2013-03-09 07:12:00,
2013-03-09 02:17:00,35.7,21.1,30.14,North,2,3.0,3.0,55,0.00,,,0.00,WeatherCatV1.10B1784,2013-03-09 07:17:00,
2013-03-09 02:22:00,35.6,21.5,30.14,North,2,2.0,3.0,56,0.00,,,0.00,WeatherCatV1.10B1784,2013-03-09 07:22:00,
2013-03-09 02:27:00,35.4,21.3,30.14,North,2,3.0,5.0,56,0.00,,,0.00,WeatherCatV1.10B1784,2013-03-09 07:27:00,
2013-03-09 02:32:00,35.2,21.1,30.14,North,2,5.0,5.0,56,0.00,,,0.00,WeatherCatV1.10B1784,2013-03-09 07:32:00,
2013-03-09 02:37:00,35.5,21.0,30.14,North,2,2.0,5.0,55,0.00,,,0.00,WeatherCatV1.10B1784,2013-03-09 07:37:00,
2013-03-09 02:42:00,35.4,20.4,30.14,North,2,3.0,6.0,54,0.00,,,0.00,WeatherCatV1.10B1784,2013-03-09 07:42:00,
2013-03-09 02:47:00,35.2,21.1,30.13,North,2,1.0,5.0,56,0.00,,,0.00,WeatherCatV1.10B1784,2013-03-09 07:47:00,
2013-03-09 02:52:00,35.2,21.1,30.13,North,2,2.0,3.0,56,0.00,,,0.00,WeatherCatV1.10B1784,2013-03-09 07:52:00,
2013-03-09 02:57:00,35.3,21.2,30.13,North,2,2.0,2.0,56,0.00,,,0.00,WeatherCatV1.10B1784,2013-03-09 07:57:00,
2013-03-09 03:02:00,35.5,20.5,30.13,North,2,2.0,5.0,54,0.00,,,0.00,WeatherCatV1.10B1784,2013-03-09 08:02:00,
2013-03-09 03:07:00,35.6,20.6,30.13,North,2,2.0,5.0,54,0.00,,,0.00,WeatherCatV1.10B1784,2013-03-09 08:07:00,
2013-03-09 03:12:00,35.7,20.3,30.13,North,2,1.0,5.0,53,0.00,,,0.00,WeatherCatV1.10B1784,2013-03-09 08:12:00,
2013-03-09 03:17:00,35.5,20.1,30.13,North,2,2.0,6.0,53,0.00,,,0.00,WeatherCatV1.10B1784,2013-03-09 08:17:00,
2013-03-09 03:22:00,35.5,20.5,30.14,North,2,2.0,3.0,54,0.00,,,0.00,WeatherCatV1.10B1784,2013-03-09 08:22:00,
2013-03-09 03:27:00,35.3,19.5,30.14,North,2,6.0,6.0,52,0.00,,,0.00,WeatherCatV1.10B1784,2013-03-09 08:27:00,
2013-03-09 03:32:00,35.6,19.7,30.14,North,2,0.0,6.0,52,0.00,,,0.00,WeatherCatV1.10B1784,2013-03-09 08:32:00,
2013-03-09 03:37:00,35.5,19.6,30.14,North,2,3.0,3.0,52,0.00,,,0.00,WeatherCatV1.10B1784,2013-03-09 08:37:00,
2013-03-09 03:42:00,35.7,19.4,30.14,North,2,2.0,5.0,51,0.00,,,0.00,WeatherCatV1.10B1784,2013-03-09 08:42:00,
2013-03-09 03:47:00,35.6,19.7,30.14,North,2,5.0,5.0,52,0.00,,,0.00,WeatherCatV1.10B1784,2013-03-09 08:47:00,
2013-03-09 03:52:00,35.6,19.7,30.14,North,2,1.0,6.0,52,0.00,,,0.00,WeatherCatV1.10B1784,2013-03-09 08:52:00,
2013-03-09 03:57:00,35.5,19.2,30.14,North,2,6.0,6.0,51,0.00,,,0.00,WeatherCatV1.10B1784,2013-03-09 08:57:00,
2013-03-09 04:02:00,35.9,20.0,30.15,North,2,2.0,5.0,52,0.00,,,0.00,WeatherCatV1.10B1784,2013-03-09 09:02:00,
2013-03-09 04:07:00,35.9,19.6,30.15,North,2,3.0,6.0,51,0.00,,,0.00,WeatherCatV1.10B1784,2013-03-09 09:07:00,
2013-03-09 04:12:00,35.9,19.1,30.15,North,2,3.0,6.0,50,0.00,,,0.00,WeatherCatV1.10B1784,2013-03-09 09:12:00,
2013-03-09 04:17:00,35.7,18.9,30.15,North,2,2.0,7.0,50,0.00,,,0.00,WeatherCatV1.10B1784,2013-03-09 09:17:00,
2013-03-09 04:22:00,35.7,19.4,30.16,North,2,1.0,5.0,51,0.00,,,0.00,WeatherCatV1.10B1784,2013-03-09 09:22:00,
2013-03-09 04:27:00,35.6,19.3,30.16,North,2,3.0,5.0,51,0.00,,,0.00,WeatherCatV1.10B1784,2013-03-09 09:27:00,
2013-03-09 04:32:00,35.6,19.3,30.16,North,2,3.0,5.0,51,0.00,,,0.00,WeatherCatV1.10B1784,2013-03-09 09:32:00,
2013-03-09 04:37:00,35.4,19.1,30.16,North,2,3.0,5.0,51,0.00,,,0.00,WeatherCatV1.10B1784,2013-03-09 09:37:00,
2013-03-09 04:42:00,35.3,19.0,30.16,North,2,1.0,5.0,51,0.00,,,0.00,WeatherCatV1.10B1784,2013-03-09 09:42:00,
2013-03-09 04:47:00,35.5,19.2,30.16,North,2,5.0,5.0,51,0.00,,,0.00,WeatherCatV1.10B1784,2013-03-09 09:47:00,
2013-03-09 04:52:00,35.2,19.4,30.17,North,2,2.0,3.0,52,0.00,,,0.00,WeatherCatV1.10B1784,2013-03-09 09:52:00,
2013-03-09 04:57:00,35.0,19.2,30.17,North,2,1.0,3.0,52,0.00,,,0.00,WeatherCatV1.10B1784,2013-03-09 09:57:00,
2013-03-09 05:02:00,34.7,19.3,30.17,North,2,0.0,1.0,53,0.00,,,0.00,WeatherCatV1.10B1784,2013-03-09 10:02:00,
2013-03-09 05:07:00,34.6,19.2,30.17,North,2,1.0,3.0,53,0.00,,,0.00,WeatherCatV1.10B1784,2013-03-09 10:07:00,
2013-03-09 05:12:00,34.4,19.1,30.18,North,2,0.0,3.0,53,0.00,,,0.00,WeatherCatV1.10B1784,2013-03-09 10:12:00,
2013-03-09 05:17:00,34.3,19.0,30.18,North,2,0.0,3.0,53,0.00,,,0.00,WeatherCatV1.10B1784,2013-03-09 10:17:00,
2013-03-09 05:22:00,34.1,19.2,30.17,North,2,2.0,3.0,54,0.00,,,0.00,WeatherCatV1.10B1784,2013-03-09 10:22:00,
2013-03-09 05:27:00,33.4,19.4,30.18,North,2,1.0,2.0,56,0.00,,,0.00,WeatherCatV1.10B1784,2013-03-09 10:27:00,
2013-03-09 05:32:00,33.4,19.0,30.18,North,2,0.0,1.0,55,0.00,,,0.00,WeatherCatV1.10B1784,2013-03-09 10:32:00,
2013-03-09 05:37:00,33.4,19.4,30.18,North,2,2.0,2.0,56,0.00,,,0.00,WeatherCatV1.10B1784,2013-03-09 10:37:00,
2013-03-09 05:42:00,33.2,19.2,30.18,North,2,1.0,2.0,56,0.00,,,0.00,WeatherCatV1.10B1784,2013-03-09 10:42:00,
2013-03-09 05:47:00,33.2,19.2,30.18,North,2,2.0,2.0,56,0.00,,,0.00,WeatherCatV1.10B1784,2013-03-09 10:47:00,
2013-03-09 05:52:00,33.2,18.8,30.18,North,2,0.0,3.0,55,0.00,,,0.00,WeatherCatV1.10B1784,2013-03-09 10:52:00,
2013-03-09 05:57:00,33.3,18.9,30.18,North,2,1.0,3.0,55,0.00,,,0.00,WeatherCatV1.10B1784,2013-03-09 10:57:00,
2013-03-09 06:02:00,33.4,19.0,30.18,North,2,0.0,0.0,55,0.00,,,0.00,WeatherCatV1.10B1784,2013-03-09 11:02:00,
2013-03-09 06:07:00,33.1,19.1,30.18,North,2,0.0,0.0,56,0.00,,,0.00,WeatherCatV1.10B1784,2013-03-09 11:07:00,
2013-03-09 06:12:00,32.7,18.8,30.18,North,2,0.0,0.0,56,0.00,,,0.00,WeatherCatV1.10B1784,2013-03-09 11:12:00,
2013-03-09 06:17:00,32.4,18.9,30.19,North,2,0.0,0.0,57,0.00,,,0.00,WeatherCatV1.10B1784,2013-03-09 11:17:00,
2013-03-09 06:22:00,32.2,18.7,30.19,North,2,0.0,0.0,57,0.00,,,0.00,WeatherCatV1.10B1784,2013-03-09 11:22:00,
2013-03-09 06:27:00,32.0,18.5,30.19,North,2,0.0,2.0,57,0.00,,,0.00,WeatherCatV1.10B1784,2013-03-09 11:27:00,
2013-03-09 06:32:00,32.3,18.4,30.19,North,2,0.0,1.0,56,0.00,,,0.00,WeatherCatV1.10B1784,2013-03-09 11:32:00,
2013-03-09 06:37:00,32.7,18.8,30.19,North,2,3.0,3.0,56,0.00,,,0.00,WeatherCatV1.10B1784,2013-03-09 11:37:00,
2013-03-09 06:42:00,33.3,18.5,30.19,North,2,1.0,3.0,54,0.00,,,0.00,WeatherCatV1.10B1784,2013-03-09 11:42:00,
2013-03-09 06:47:00,33.7,18.8,30.20,North,2,5.0,5.0,54,0.00,,,0.00,WeatherCatV1.10B1784,2013-03-09 11:47:00,
2013-03-09 06:52:00,34.4,18.6,30.20,North,2,1.0,2.0,52,0.00,,,0.00,WeatherCatV1.10B1784,2013-03-09 11:52:00,
2013-03-09 06:57:00,34.8,19.0,30.20,North,2,2.0,3.0,52,0.00,,,0.00,WeatherCatV1.10B1784,2013-03-09 11:57:00,
2013-03-09 07:02:00,35.1,18.8,30.20,North,2,1.0,3.0,51,0.00,,,0.00,WeatherCatV1.10B1784,2013-03-09 12:02:00,
2013-03-09 07:07:00,35.3,18.5,30.21,North,2,1.0,5.0,50,0.00,,,0.00,WeatherCatV1.10B1784,2013-03-09 12:07:00,
2013-03-09 07:12:00,35.5,18.7,30.21,North,2,2.0,3.0,50,0.00,,,0.00,WeatherCatV1.10B1784,2013-03-09 12:12:00,
2013-03-09 07:17:00,35.6,18.8,30.21,North,2,3.0,3.0,50,0.00,,,0.00,WeatherCatV1.10B1784,2013-03-09 12:17:00,
2013-03-09 07:22:00,36.0,18.7,30.22,North,2,3.0,5.0,49,0.00,,,0.00,WeatherCatV1.10B1784,2013-03-09 12:22:00,
2013-03-09 07:27:00,36.4,19.1,30.21,North,2,3.0,5.0,49,0.00,,,0.00,WeatherCatV1.10B1784,2013-03-09 12:27:00,
2013-03-09 07:32:00,36.6,19.3,30.21,North,2,2.0,3.0,49,0.00,,,0.00,WeatherCatV1.10B1784,2013-03-09 12:32:00,
2013-03-09 07:37:00,36.7,19.4,30.21,North,2,2.0,5.0,49,0.00,,,0.00,WeatherCatV1.10B1784,2013-03-09 12:37:00,
2013-03-09 07:42:00,37.0,19.2,30.21,NE,44,0.0,3.0,48,0.00,,,0.00,WeatherCatV1.10B1784,2013-03-09 12:42:00,
2013-03-09 07:47:00,37.2,19.3,30.21,NE,44,2.0,3.0,48,0.00,,,0.00,WeatherCatV1.10B1784,2013-03-09 12:47:00,
2013-03-09 07:52:00,37.3,20.4,30.21,NE,44,2.0,3.0,50,0.00,,,0.00,WeatherCatV1.10B1784,2013-03-09 12:52:00,
2013-03-09 07:57:00,37.6,18.7,30.21,NE,53,1.0,4.0,46,0.00,,,0.00,WeatherCatV1.10B1784,2013-03-09 12:57:00,
2013-03-09 08:02:00,37.8,19.4,30.21,NE,53,1.0,4.0,47,0.00,,,0.00,WeatherCatV1.10B1784,2013-03-09 13:02:00,
2013-03-09 08:07:00,38.1,19.2,30.21,NE,52,5.0,6.0,46,0.00,,,0.00,WeatherCatV1.10B1784,2013-03-09 13:07:00,
2013-03-09 08:12:00,38.4,19.4,30.21,NE,47,2.0,4.0,46,0.00,,,0.00,WeatherCatV1.10B1784,2013-03-09 13:12:00,
2013-03-09 08:18:00,38.6,20.1,30.21,NE,47,2.0,2.0,47,0.00,,,0.00,WeatherCatV1.10B1784,2013-03-09 13:18:00,
2013-03-09 08:23:00,38.8,19.3,30.21,NE,47,1.0,2.0,45,0.00,,,0.00,WeatherCatV1.10B1784,2013-03-09 13:23:00,
2013-03-09 08:28:00,38.8,20.3,30.21,NE,47,3.0,5.0,47,0.00,,,0.00,WeatherCatV1.10B1784,2013-03-09 13:28:00,
2013-03-09 08:33:00,39.1,19.6,30.22,NE,46,4.0,6.0,45,0.00,,,0.00,WeatherCatV1.10B1784,2013-03-09 13:33:00,
2013-03-09 08:38:00,39.5,18.9,30.22,ENE,65,6.0,8.0,43,0.00,,,0.00,WeatherCatV1.10B1784,2013-03-09 13:38:00,
2013-03-09 08:43:00,39.9,19.8,30.22,NE,49,3.0,4.0,44,0.00,,,0.01,WeatherCatV1.10B1784,2013-03-09 13:43:00,
2013-03-09 08:48:00,40.2,18.4,30.22,NE,42,2.0,8.0,41,0.00,,,0.01,WeatherCatV1.10B1784,2013-03-09 13:48:00,
2013-03-09 08:53:00,40.3,19.6,30.22,NE,50,5.0,6.0,43,0.00,,,0.01,WeatherCatV1.10B1784,2013-03-09 13:53:00,
2013-03-09 08:58:00,40.5,18.1,30.22,NE,51,8.0,13.0,40,0.00,,,0.01,WeatherCatV1.10B1784,2013-03-09 13:58:00,
2013-03-09 09:03:00,40.7,18.9,30.22,NE,41,0.0,5.0,41,0.00,,,0.01,WeatherCatV1.10B1784,2013-03-09 14:03:00,
2013-03-09 09:08:00,40.8,20.6,30.21,NE,47,1.0,3.0,44,0.00,,,0.01,WeatherCatV1.10B1784,2013-03-09 14:08:00,
2013-03-09 09:13:00,41.1,19.2,30.22,NE,44,4.0,4.0,41,0.00,,,0.01,WeatherCatV1.10B1784,2013-03-09 14:13:00,
2013-03-09 09:18:00,41.2,18.1,30.22,NE,41,8.0,11.0,39,0.00,,,0.01,WeatherCatV1.10B1784,2013-03-09 14:18:00,
2013-03-09 09:23:00,41.1,18.1,30.22,NE,35,4.0,11.0,39,0.00,,,0.01,WeatherCatV1.10B1784,2013-03-09 14:23:00,
2013-03-09 09:28:00,41.0,18.0,30.22,NNE,32,2.0,7.0,39,0.00,,,0.02,WeatherCatV1.10B1784,2013-03-09 14:28:00,
2013-03-09 09:33:00,41.0,19.1,30.21,NE,34,4.0,8.0,41,0.00,,,0.02,WeatherCatV1.10B1784,2013-03-09 14:33:00,
2013-03-09 09:38:00,41.1,19.2,30.22,NNE,28,7.0,7.0,41,0.00,,,0.02,WeatherCatV1.10B1784,2013-03-09 14:38:00,
2013-03-09 09:43:00,41.3,20.0,30.21,NE,36,6.0,8.0,42,0.00,,,0.02,WeatherCatV1.10B1784,2013-03-09 14:43:00,
2013-03-09 09:48:00,41.5,19.6,30.21,NE,48,3.0,7.0,41,0.00,,,0.02,WeatherCatV1.10B1784,2013-03-09 14:48:00,
2013-03-09 09:53:00,41.7,18.6,30.22,NNE,32,8.0,8.0,39,0.00,,,0.03,WeatherCatV1.10B1784,2013-03-09 14:53:00,
2013-03-09 09:58:00,42.0,19.5,30.21,NE,46,5.0,7.0,40,0.00,,,0.03,WeatherCatV1.10B1784,2013-03-09 14:58:00,
2013-03-09 10:03:00,42.2,19.0,30.21,NE,47,1.0,6.0,39,0.00,,,0.03,WeatherCatV1.10B1784,2013-03-09 15:03:00,
2013-03-09 10:08:00,42.5,20.5,30.22,NE,42,4.0,6.0,41,0.00,,,0.03,WeatherCatV1.10B1784,2013-03-09 15:08:00,
2013-03-09 10:13:00,42.6,19.4,30.22,ENE,63,1.0,7.0,39,0.00,,,0.03,WeatherCatV1.10B1784,2013-03-09 15:13:00,
2013-03-09 10:18:00,42.7,18.9,30.22,NNE,28,1.0,4.0,38,0.00,,,0.03,WeatherCatV1.10B1784,2013-03-09 15:18:00,
2013-03-09 10:23:00,43.0,20.3,30.22,ENE,57,1.0,3.0,40,0.00,,,0.03,WeatherCatV1.10B1784,2013-03-09 15:23:00,
2013-03-09 10:28:00,43.2,19.3,30.22,NE,54,3.0,6.0,38,0.00,,,0.03,WeatherCatV1.10B1784,2013-03-09 15:28:00,
2013-03-09 10:33:00,43.2,19.9,30.22,NE,46,3.0,7.0,39,0.00,,,0.03,WeatherCatV1.10B1784,2013-03-09 15:33:00,
2013-03-09 10:38:00,43.2,19.9,30.22,NE,52,0.0,6.0,39,0.00,,,0.03,WeatherCatV1.10B1784,2013-03-09 15:38:00,
2013-03-09 10:43:00,43.4,19.5,30.22,ENE,63,3.0,8.0,38,0.00,,,0.03,WeatherCatV1.10B1784,2013-03-09 15:43:00,
2013-03-09 10:48:00,43.5,20.2,30.21,NE,40,0.0,4.0,39,0.00,,,0.03,WeatherCatV1.10B1784,2013-03-09 15:48:00,
2013-03-09 10:53:00,43.8,20.5,30.22,NE,34,0.0,1.0,39,0.00,,,0.03,WeatherCatV1.10B1784,2013-03-09 15:53:00,
2013-03-09 10:58:00,44.1,21.3,30.22,NE,34,0.0,1.0,40,0.00,,,0.03,WeatherCatV1.10B1784,2013-03-09 15:58:00,
2013-03-09 11:03:00,44.3,21.5,30.22,NE,34,2.0,2.0,40,0.00,,,0.03,WeatherCatV1.10B1784,2013-03-09 16:03:00,
2013-03-09 11:08:00,44.5,21.1,30.22,East,80,0.0,4.0,39,0.00,,,0.03,WeatherCatV1.10B1784,2013-03-09 16:08:00,
2013-03-09 11:13:00,44.6,20.6,30.22,ENE,63,1.0,3.0,38,0.00,,,0.03,WeatherCatV1.10B1784,2013-03-09 16:13:00,
2013-03-09 11:18:00,44.8,21.4,30.22,ENE,63,0.0,0.0,39,0.00,,,0.03,WeatherCatV1.10B1784,2013-03-09 16:18:00,
2013-03-09 11:23:00,45.1,21.0,30.22,East,95,0.0,1.0,38,0.00,,,0.03,WeatherCatV1.10B1784,2013-03-09 16:23:00,
2013-03-09 11:28:00,45.2,21.1,30.22,East,95,0.0,3.0,38,0.00,,,0.03,WeatherCatV1.10B1784,2013-03-09 16:28:00,
2013-03-09 11:33:00,45.4,21.3,30.22,East,95,0.0,0.0,38,0.00,,,0.03,WeatherCatV1.10B1784,2013-03-09 16:33:00,
2013-03-09 11:38:00,45.9,21.1,30.22,East,89,0.0,4.0,37,0.00,,,0.03,WeatherCatV1.10B1784,2013-03-09 16:38:00,
2013-03-09 11:43:00,45.9,21.7,30.22,East,89,2.0,3.0,38,0.00,,,0.03,WeatherCatV1.10B1784,2013-03-09 16:43:00,
2013-03-09 11:48:00,45.9,21.1,30.22,East,89,0.0,1.0,37,0.00,,,0.03,WeatherCatV1.10B1784,2013-03-09 16:48:00,
2013-03-09 11:53:00,46.0,21.2,30.22,NE,37,0.0,3.0,37,0.00,,,0.03,WeatherCatV1.10B1784,2013-03-09 16:53:00,
2013-03-09 11:58:00,46.3,21.5,30.22,NE,45,0.0,2.0,37,0.00,,,0.03,WeatherCatV1.10B1784,2013-03-09 16:58:00,
2013-03-09 12:03:00,46.4,21.6,30.22,SE,138,3.0,3.0,37,0.00,,,0.03,WeatherCatV1.10B1784,2013-03-09 17:03:00,
2013-03-09 12:08:00,46.6,22.4,30.22,SE,141,0.0,1.0,38,0.00,,,0.03,WeatherCatV1.10B1784,2013-03-09 17:08:00,
2013-03-09 12:13:00,47.1,20.9,30.22,SE,141,1.0,2.0,35,0.00,,,0.03,WeatherCatV1.10B1784,2013-03-09 17:13:00,
2013-03-09 12:18:00,47.4,21.1,30.21,SE,140,1.0,3.0,35,0.00,,,0.03,WeatherCatV1.10B1784,2013-03-09 17:18:00,
2013-03-09 12:23:00,47.4,21.8,30.21,East,101,1.0,1.0,36,0.00,,,0.03,WeatherCatV1.10B1784,2013-03-09 17:23:00,
2013-03-09 12:28:00,47.7,21.4,30.21,ESE,107,0.0,1.0,35,0.00,,,0.03,WeatherCatV1.10B1784,2013-03-09 17:28:00,
2013-03-09 12:33:00,47.7,21.4,30.21,East,83,0.0,2.0,35,0.00,,,0.03,WeatherCatV1.10B1784,2013-03-09 17:33:00,
2013-03-09 12:38:00,48.0,22.3,30.20,East,83,0.0,2.0,36,0.00,,,0.03,WeatherCatV1.10B1784,2013-03-09 17:38:00,
2013-03-09 12:43:00,48.5,22.1,30.20,East,83,0.0,0.0,35,0.00,,,0.03,WeatherCatV1.10B1784,2013-03-09 17:43:00,
2013-03-09 12:48:00,48.8,22.4,30.20,ENE,73,4.0,4.0,35,0.00,,,0.03,WeatherCatV1.10B1784,2013-03-09 17:48:00,
2013-03-09 12:53:00,48.9,21.8,30.20,East,86,3.0,3.0,34,0.00,,,0.03,WeatherCatV1.10B1784,2013-03-09 17:53:00,
2013-03-09 12:58:00,49.1,22.0,30.20,ESE,119,3.0,3.0,34,0.00,,,0.03,WeatherCatV1.10B1784,2013-03-09 17:58:00,
2013-03-09 13:03:00,49.3,22.1,30.20,ESE,119,0.0,3.0,34,0.00,,,0.03,WeatherCatV1.10B1784,2013-03-09 18:03:00,
2013-03-09 13:08:00,49.6,21.7,30.20,ESE,119,2.0,2.0,33,0.00,,,0.03,WeatherCatV1.10B1784,2013-03-09 18:08:00,
2013-03-09 13:13:00,50.1,22.8,30.19,ESE,119,0.0,3.0,34,0.00,,,0.03,WeatherCatV1.10B1784,2013-03-09 18:13:00,
2013-03-09 13:18:00,50.1,22.8,30.19,ESE,119,0.0,1.0,34,0.00,,,0.03,WeatherCatV1.10B1784,2013-03-09 18:18:00,
2013-03-09 13:23:00,50.3,23.0,30.19,ESE,119,0.0,4.0,34,0.00,,,0.03,WeatherCatV1.10B1784,2013-03-09 18:23:00,
2013-03-09 13:28:00,50.7,21.9,30.19,ESE,119,0.0,3.0,32,0.00,,,0.03,WeatherCatV1.10B1784,2013-03-09 18:28:00,
2013-03-09 13:33:00,51.0,22.9,30.19,ESE,119,0.0,1.0,33,0.00,,,0.03,WeatherCatV1.10B1784,2013-03-09 18:33:00,
2013-03-09 13:38:00,51.2,22.4,30.19,ESE,119,0.0,0.0,32,0.00,,,0.03,WeatherCatV1.10B1784,2013-03-09 18:38:00,
2013-03-09 13:43:00,51.5,21.1,30.19,SE,129,5.0,5.0,30,0.00,,,0.03,WeatherCatV1.10B1784,2013-03-09 18:43:00,
2013-03-09 13:48:00,51.8,22.1,30.19,ESE,102,0.0,0.0,31,0.00,,,0.03,WeatherCatV1.10B1784,2013-03-09 18:48:00,
2013-03-09 13:53:00,52.0,23.8,30.19,ESE,102,1.0,1.0,33,0.00,,,0.03,WeatherCatV1.10B1784,2013-03-09 18:53:00,
2013-03-09 13:58:00,52.2,22.5,30.19,ESE,103,1.0,3.0,31,0.00,,,0.03,WeatherCatV1.10B1784,2013-03-09 18:58:00,
2013-03-09 14:03:00,52.2,21.7,30.19,ESE,102,0.0,1.0,30,0.00,,,0.03,WeatherCatV1.10B1784,2013-03-09 19:03:00,
2013-03-09 14:08:00,52.2,20.1,30.19,ENE,65,1.0,6.0,28,0.00,,,0.03,WeatherCatV1.10B1784,2013-03-09 19:08:00,
2013-03-09 14:13:00,52.2,22.5,30.18,ENE,69,0.0,2.0,31,0.00,,,0.03,WeatherCatV1.10B1784,2013-03-09 19:13:00,
2013-03-09 14:18:00,52.1,20.8,30.18,ENE,69,4.0,4.0,29,0.00,,,0.03,WeatherCatV1.10B1784,2013-03-09 19:18:00,
2013-03-09 14:23:00,52.3,19.3,30.18,East,87,3.0,3.0,27,0.00,,,0.03,WeatherCatV1.10B1784,2013-03-09 19:23:00,
2013-03-09 14:28:00,52.7,22.1,30.18,ESE,119,0.0,2.0,30,0.00,,,0.03,WeatherCatV1.10B1784,2013-03-09 19:28:00,
2013-03-09 14:33:00,53.1,22.5,30.18,ESE,120,0.0,0.0,30,0.00,,,0.03,WeatherCatV1.10B1784,2013-03-09 19:33:00,
2013-03-09 14:38:00,53.2,22.6,30.18,SE,125,0.0,1.0,30,0.00,,,0.03,WeatherCatV1.10B1784,2013-03-09 19:38:00,
2013-03-09 14:43:00,53.1,22.5,30.18,SE,125,1.0,3.0,30,0.00,,,0.03,WeatherCatV1.10B1784,2013-03-09 19:43:00,
2013-03-09 14:48:00,53.3,21.0,30.18,East,99,1.0,5.0,28,0.00,,,0.03,WeatherCatV1.10B1784,2013-03-09 19:48:00,
2013-03-09 14:53:00,53.5,21.2,30.18,East,99,0.0,3.0,28,0.00,,,0.03,WeatherCatV1.10B1784,2013-03-09 19:53:00,
2013-03-09 14:58:00,53.7,22.2,30.18,ESE,115,0.0,4.0,29,0.00,,,0.03,WeatherCatV1.10B1784,2013-03-09 19:58:00,
2013-03-09 15:03:00,53.7,22.2,30.18,ESE,117,4.0,4.0,29,0.00,,,0.03,WeatherCatV1.10B1784,2013-03-09 20:03:00,
2013-03-09 15:08:00,53.5,22.0,30.18,East,87,0.0,3.0,29,0.00,,,0.03,WeatherCatV1.10B1784,2013-03-09 20:08:00,
2013-03-09 15:13:00,53.5,22.0,30.18,East,100,0.0,1.0,29,0.00,,,0.03,WeatherCatV1.10B1784,2013-03-09 20:13:00,
2013-03-09 15:18:00,53.4,21.1,30.18,ESE,105,0.0,0.0,28,0.00,,,0.03,WeatherCatV1.10B1784,2013-03-09 20:18:00,
2013-03-09 15:23:00,53.5,22.0,30.18,East,88,0.0,0.0,29,0.00,,,0.03,WeatherCatV1.10B1784,2013-03-09 20:23:00,
2013-03-09 15:28:00,53.8,22.3,30.18,East,88,0.0,1.0,29,0.00,,,0.03,WeatherCatV1.10B1784,2013-03-09 20:28:00,
2013-03-09 15:33:00,53.9,21.6,30.18,East,88,0.0,0.0,28,0.00,,,0.03,WeatherCatV1.10B1784,2013-03-09 20:33:00,
2013-03-09 15:38:00,54.0,19.9,30.18,East,88,3.0,3.0,26,0.00,,,0.03,WeatherCatV1.10B1784,2013-03-09 20:38:00,
2013-03-09 15:43:00,54.1,21.7,30.18,East,88,0.0,0.0,28,0.00,,,0.03,WeatherCatV1.10B1784,2013-03-09 20:43:00,
2013-03-09 15:48:00,54.2,21.0,30.19,East,88,0.0,0.0,27,0.00,,,0.03,WeatherCatV1.10B1784,2013-03-09 20:48:00,
2013-03-09 15:53:00,54.3,20.2,30.19,East,88,0.0,0.0,26,0.00,,,0.03,WeatherCatV1.10B1784,2013-03-09 20:53:00,
2013-03-09 15:58:00,54.2,20.1,30.19,East,88,0.0,0.0,26,0.00,,,0.03,WeatherCatV1.10B1784,2013-03-09 20:58:00,
2013-03-09 16:03:00,54.3,20.2,30.19,East,88,0.0,0.0,26,0.00,,,0.03,WeatherCatV1.10B1784,2013-03-09 21:03:00,
2013-03-09 16:08:00,54.1,19.1,30.19,East,88,0.0,0.0,25,0.00,,,0.03,WeatherCatV1.10B1784,2013-03-09 21:08:00,
2013-03-09 16:13:00,53.9,20.7,30.19,East,88,0.0,1.0,27,0.00,,,0.03,WeatherCatV1.10B1784,2013-03-09 21:13:00,
2013-03-09 16:18:00,53.3,21.0,30.19,East,88,0.0,1.0,28,0.00,,,0.03,WeatherCatV1.10B1784,2013-03-09 21:18:00,
2013-03-09 16:23:00,52.8,21.4,30.19,East,88,0.0,1.0,29,0.00,,,0.03,WeatherCatV1.10B1784,2013-03-09 21:23:00,
2013-03-09 16:28:00,52.3,21.0,30.20,East,88,1.0,1.0,29,0.00,,,0.03,WeatherCatV1.10B1784,2013-03-09 21:28:00,
2013-03-09 16:33:00,51.8,20.6,30.20,East,88,0.0,1.0,29,0.00,,,0.03,WeatherCatV1.10B1784,2013-03-09 21:33:00,
2013-03-09 16:38:00,51.2,20.8,30.20,East,94,1.0,4.0,30,0.00,,,0.03,WeatherCatV1.10B1784,2013-03-09 21:38:00,
2013-03-09 16:43:00,50.4,21.7,30.21,East,90,0.0,0.0,32,0.00,,,0.03,WeatherCatV1.10B1784,2013-03-09 21:43:00,
2013-03-09 16:48:00,49.7,22.5,30.21,East,90,2.0,2.0,34,0.00,,,0.03,WeatherCatV1.10B1784,2013-03-09 21:48:00,
2013-03-09 16:53:00,49.2,23.4,30.21,East,90,0.0,1.0,36,0.00,,,0.03,WeatherCatV1.10B1784,2013-03-09 21:53:00,
2013-03-09 16:58:00,48.8,23.0,30.21,East,90,0.0,0.0,36,0.00,,,0.03,WeatherCatV1.10B1784,2013-03-09 21:58:00,
2013-03-09 17:03:00,48.4,22.0,30.21,East,90,0.0,0.0,35,0.00,,,0.03,WeatherCatV1.10B1784,2013-03-09 22:03:00,
2013-03-09 17:08:00,48.1,22.4,30.22,East,90,2.0,3.0,36,0.00,,,0.03,WeatherCatV1.10B1784,2013-03-09 22:08:00,
2013-03-09 17:13:00,47.8,22.2,30.22,East,90,0.0,0.0,36,0.00,,,0.03,WeatherCatV1.10B1784,2013-03-09 22:13:00,
2013-03-09 17:18:00,47.5,23.8,30.22,East,90,0.0,0.0,39,0.00,,,0.03,WeatherCatV1.10B1784,2013-03-09 22:18:00,
2013-03-09 17:23:00,47.0,22.7,30.22,East,90,0.0,0.0,38,0.00,,,0.03,WeatherCatV1.10B1784,2013-03-09 22:23:00,
2013-03-09 17:28:00,46.6,24.8,30.23,SE,124,0.0,7.0,42,0.00,,,0.03,WeatherCatV1.10B1784,2013-03-09 22:28:00,
2013-03-09 17:33:00,45.9,26.8,30.23,SE,125,0.0,4.0,47,0.00,,,0.03,WeatherCatV1.10B1784,2013-03-09 22:33:00,
2013-03-09 17:38:00,45.1,28.5,30.24,ESE,117,0.0,5.0,52,0.00,,,0.03,WeatherCatV1.10B1784,2013-03-09 22:38:00,
2013-03-09 17:43:00,44.3,29.2,30.24,ESE,110,1.0,5.0,55,0.00,,,0.03,WeatherCatV1.10B1784,2013-03-09 22:43:00,
2013-03-09 17:48:00,43.5,28.9,30.24,ESE,110,0.0,0.0,56,0.00,,,0.03,WeatherCatV1.10B1784,2013-03-09 22:48:00,
2013-03-09 17:53:00,42.8,29.5,30.24,ESE,110,0.0,0.0,59,0.00,,,0.03,WeatherCatV1.10B1784,2013-03-09 22:53:00,
2013-03-09 17:58:00,42.2,29.7,30.24,ESE,110,1.0,1.0,61,0.00,,,0.03,WeatherCatV1.10B1784,2013-03-09 22:58:00,
2013-03-09 18:03:00,41.6,29.6,30.24,ESE,110,0.0,0.0,62,0.00,,,0.03,WeatherCatV1.10B1784,2013-03-09 23:03:00,
2013-03-09 18:08:00,41.1,29.5,30.25,ESE,110,0.0,3.0,63,0.00,,,0.03,WeatherCatV1.10B1784,2013-03-09 23:08:00,
2013-03-09 18:13:00,40.7,29.9,30.25,ESE,110,0.0,0.0,65,0.00,,,0.03,WeatherCatV1.10B1784,2013-03-09 23:13:00,
2013-03-09 18:18:00,40.1,29.7,30.25,ESE,110,0.0,0.0,66,0.00,,,0.03,WeatherCatV1.10B1784,2013-03-09 23:18:00,
2013-03-09 18:23:00,39.5,29.5,30.25,ESE,110,0.0,0.0,67,0.00,,,0.03,WeatherCatV1.10B1784,2013-03-09 23:23:00,
2013-03-09 18:28:00,39.2,29.5,30.25,ESE,110,0.0,0.0,68,0.00,,,0.03,WeatherCatV1.10B1784,2013-03-09 23:28:00,
2013-03-09 18:33:00,38.8,29.5,30.25,ESE,110,0.0,0.0,69,0.00,,,0.03,WeatherCatV1.10B1784,2013-03-09 23:33:00,
2013-03-09 18:38:00,38.4,29.5,30.25,ESE,110,0.0,0.0,70,0.00,,,0.03,WeatherCatV1.10B1784,2013-03-09 23:38:00,
2013-03-09 18:43:00,38.1,29.5,30.26,ESE,110,0.0,0.0,71,0.00,,,0.03,WeatherCatV1.10B1784,2013-03-09 23:43:00,
2013-03-09 18:48:00,37.8,29.3,30.26,ESE,110,0.0,0.0,71,0.00,,,0.03,WeatherCatV1.10B1784,2013-03-09 23:48:00,
2013-03-09 18:53:00,37.5,29.3,30.26,ESE,110,0.0,0.0,72,0.00,,,0.03,WeatherCatV1.10B1784,2013-03-09 23:53:00,
2013-03-09 18:58:00,37.2,29.4,30.26,ESE,110,0.0,0.0,73,0.00,,,0.03,WeatherCatV1.10B1784,2013-03-09 23:58:00,
2013-03-09 19:03:00,36.9,29.1,30.26,ESE,110,0.0,0.0,73,0.00,,,0.03,WeatherCatV1.10B1784,2013-03-10 00:03:00,
2013-03-09 19:08:00,36.6,29.4,30.27,ESE,110,0.0,0.0,75,0.00,,,0.03,WeatherCatV1.10B1784,2013-03-10 00:08:00,
2013-03-09 19:13:00,36.2,29.1,30.27,ESE,110,0.0,0.0,75,0.00,,,0.03,WeatherCatV1.10B1784,2013-03-10 00:13:00,
2013-03-09 19:18:00,35.8,29.0,30.27,ESE,110,0.0,0.0,76,0.00,,,0.03,WeatherCatV1.10B1784,2013-03-10 00:18:00,
2013-03-09 19:23:00,35.3,28.8,30.28,ESE,110,0.0,0.0,77,0.00,,,0.03,WeatherCatV1.10B1784,2013-03-10 00:23:00,
2013-03-09 19:28:00,35.1,28.9,30.28,ESE,110,0.0,0.0,78,0.00,,,0.03,WeatherCatV1.10B1784,2013-03-10 00:28:00,
2013-03-09 19:33:00,34.8,28.7,30.28,ESE,110,0.0,0.0,78,0.00,,,0.03,WeatherCatV1.10B1784,2013-03-10 00:33:00,
2013-03-09 19:38:00,34.5,28.7,30.29,ESE,110,0.0,0.0,79,0.00,,,0.03,WeatherCatV1.10B1784,2013-03-10 00:38:00,
2013-03-09 19:43:00,34.5,28.7,30.29,ESE,110,0.0,0.0,79,0.00,,,0.03,WeatherCatV1.10B1784,2013-03-10 00:43:00,
2013-03-09 19:48:00,34.3,28.5,30.29,ESE,110,0.0,0.0,79,0.00,,,0.03,WeatherCatV1.10B1784,2013-03-10 00:48:00,
2013-03-09 19:53:00,33.7,28.2,30.29,ESE,110,0.0,0.0,80,0.00,,,0.03,WeatherCatV1.10B1784,2013-03-10 00:53:00,
2013-03-09 19:58:00,33.3,28.1,30.29,ESE,110,0.0,0.0,81,0.00,,,0.03,WeatherCatV1.10B1784,2013-03-10 00:58:00,
2013-03-09 20:03:00,33.1,28.2,30.29,ESE,110,0.0,0.0,82,0.00,,,0.03,WeatherCatV1.10B1784,2013-03-10 01:03:00,
2013-03-09 20:08:00,32.8,27.9,30.29,ESE,110,0.0,0.0,82,0.00,,,0.03,WeatherCatV1.10B1784,2013-03-10 01:08:00,
2013-03-09 20:13:00,32.5,27.9,30.29,ESE,110,0.0,0.0,83,0.00,,,0.03,WeatherCatV1.10B1784,2013-03-10 01:13:00,
2013-03-09 20:18:00,32.3,27.7,30.29,ESE,110,0.0,0.0,83,0.00,,,0.03,WeatherCatV1.10B1784,2013-03-10 01:18:00,
2013-03-09 20:23:00,32.3,28.0,30.29,ESE,110,0.0,0.0,84,0.00,,,0.03,WeatherCatV1.10B1784,2013-03-10 01:23:00,
2013-03-09 20:28:00,32.3,28.0,30.29,ESE,110,0.0,0.0,84,0.00,,,0.03,WeatherCatV1.10B1784,2013-03-10 01:28:00,
2013-03-09 20:33:00,32.1,27.8,30.30,ESE,110,0.0,0.0,84,0.00,,,0.03,WeatherCatV1.10B1784,2013-03-10 01:33:00,
2013-03-09 20:38:00,31.9,27.6,30.30,ESE,110,0.0,0.0,84,0.00,,,0.03,WeatherCatV1.10B1784,2013-03-10 01:38:00,
2013-03-09 20:43:00,31.7,27.7,30.30,ESE,110,0.0,0.0,85,0.00,,,0.03,WeatherCatV1.10B1784,2013-03-10 01:43:00,
2013-03-09 20:48:00,31.6,27.6,30.30,ESE,110,0.0,0.0,85,0.00,,,0.03,WeatherCatV1.10B1784,2013-03-10 01:48:00,
2013-03-09 20:53:00,31.2,27.2,30.30,ESE,110,0.0,0.0,85,0.00,,,0.03,WeatherCatV1.10B1784,2013-03-10 01:53:00,
2013-03-09 20:58:00,30.8,26.8,30.30,ESE,110,0.0,0.0,85,0.00,,,0.03,WeatherCatV1.10B1784,2013-03-10 01:58:00,
2013-03-09 21:03:00,30.8,27.4,30.30,ESE,110,0.0,0.0,87,0.00,,,0.03,WeatherCatV1.10B1784,2013-03-10 02:03:00,
2013-03-09 21:08:00,30.8,27.4,30.30,ESE,110,0.0,0.0,87,0.00,,,0.03,WeatherCatV1.10B1784,2013-03-10 02:08:00,
2013-03-09 21:13:00,30.8,27.4,30.30,ESE,110,0.0,0.0,87,0.00,,,0.03,WeatherCatV1.10B1784,2013-03-10 02:13:00,
2013-03-09 21:18:00,30.6,26.9,30.30,ESE,110,0.0,0.0,86,0.00,,,0.03,WeatherCatV1.10B1784,2013-03-10 02:18:00,
2013-03-09 21:23:00,30.1,26.4,30.30,ESE,110,0.0,0.0,86,0.00,,,0.03,WeatherCatV1.10B1784,2013-03-10 02:23:00,
2013-03-09 21:28:00,29.8,26.4,30.30,ESE,110,0.0,0.0,87,0.00,,,0.03,WeatherCatV1.10B1784,2013-03-10 02:28:00,
2013-03-09 21:33:00,29.9,26.8,30.30,ESE,110,0.0,0.0,88,0.00,,,0.03,WeatherCatV1.10B1784,2013-03-10 02:33:00,
2013-03-09 21:38:00,30.1,27.3,30.30,ESE,110,0.0,0.0,89,0.00,,,0.03,WeatherCatV1.10B1784,2013-03-10 02:38:00,
2013-03-09 21:43:00,30.1,27.0,30.30,ESE,110,0.0,0.0,88,0.00,,,0.03,WeatherCatV1.10B1784,2013-03-10 02:43:00,
2013-03-09 21:48:00,30.0,26.9,30.30,ESE,110,0.0,0.0,88,0.00,,,0.03,WeatherCatV1.10B1784,2013-03-10 02:48:00,
2013-03-09 21:53:00,29.6,26.5,30.30,ESE,110,0.0,0.0,88,0.00,,,0.03,WeatherCatV1.10B1784,2013-03-10 02:53:00,
2013-03-09 21:58:00,29.2,26.1,30.30,ESE,110,0.0,0.0,88,0.00,,,0.03,WeatherCatV1.10B1784,2013-03-10 02:58:00,
2013-03-09 22:03:00,29.0,25.9,30.30,ESE,110,0.0,0.0,88,0.00,,,0.03,WeatherCatV1.10B1784,2013-03-10 03:03:00,
2013-03-09 22:08:00,29.2,26.4,30.30,ESE,110,0.0,0.0,89,0.00,,,0.03,WeatherCatV1.10B1784,2013-03-10 03:08:00,
2013-03-09 22:13:00,29.4,26.6,30.30,ESE,110,0.0,0.0,89,0.00,,,0.03,WeatherCatV1.10B1784,2013-03-10 03:13:00,
2013-03-09 22:18:00,29.5,26.7,30.30,ESE,110,0.0,0.0,89,0.00,,,0.03,WeatherCatV1.10B1784,2013-03-10 03:18:00,
2013-03-09 22:23:00,29.5,26.7,30.30,ESE,110,0.0,0.0,89,0.00,,,0.03,WeatherCatV1.10B1784,2013-03-10 03:23:00,
2013-03-09 22:28:00,29.3,26.2,30.30,ESE,110,0.0,0.0,88,0.00,,,0.03,WeatherCatV1.10B1784,2013-03-10 03:28:00,
2013-03-09 22:33:00,29.1,26.3,30.30,ESE,110,0.0,0.0,89,0.00,,,0.03,WeatherCatV1.10B1784,2013-03-10 03:33:00,
2013-03-09 22:38:00,29.1,26.3,30.30,ESE,110,0.0,0.0,89,0.00,,,0.03,WeatherCatV1.10B1784,2013-03-10 03:38:00,
2013-03-09 22:43:00,29.1,26.5,30.30,ESE,110,0.0,0.0,90,0.00,,,0.03,WeatherCatV1.10B1784,2013-03-10 03:43:00,
2013-03-09 22:48:00,29.1,26.5,30.31,ESE,110,0.0,0.0,90,0.00,,,0.03,WeatherCatV1.10B1784,2013-03-10 03:48:00,
2013-03-09 22:53:00,29.0,26.4,30.31,ESE,110,0.0,0.0,90,0.00,,,0.03,WeatherCatV1.10B1784,2013-03-10 03:53:00,
2013-03-09 22:58:00,29.0,26.4,30.31,ESE,110,0.0,0.0,90,0.00,,,0.03,WeatherCatV1.10B1784,2013-03-10 03:58:00,
2013-03-09 23:03:00,29.0,26.4,30.31,ESE,110,0.0,0.0,90,0.00,,,0.03,WeatherCatV1.10B1784,2013-03-10 04:03:00,
2013-03-09 23:08:00,28.9,26.3,30.31,ESE,110,0.0,0.0,90,0.00,,,0.03,WeatherCatV1.10B1784,2013-03-10 04:08:00,
2013-03-09 23:13:00,28.8,26.2,30.31,ESE,110,0.0,0.0,90,0.00,,,0.03,WeatherCatV1.10B1784,2013-03-10 04:13:00,
2013-03-09 23:18:00,28.8,26.5,30.31,ESE,110,0.0,0.0,91,0.00,,,0.03,WeatherCatV1.10B1784,2013-03-10 04:18:00,
2013-03-09 23:23:00,28.7,26.1,30.31,ESE,110,0.0,0.0,90,0.00,,,0.03,WeatherCatV1.10B1784,2013-03-10 04:23:00,
2013-03-09 23:28:00,28.5,25.9,30.32,ESE,110,0.0,0.0,90,0.00,,,0.03,WeatherCatV1.10B1784,2013-03-10 04:28:00,
2013-03-09 23:33:00,28.5,26.2,30.32,ESE,110,0.0,0.0,91,0.00,,,0.03,WeatherCatV1.10B1784,2013-03-10 04:33:00,
2013-03-09 23:38:00,28.4,26.1,30.32,ESE,110,0.0,0.0,91,0.00,,,0.03,WeatherCatV1.10B1784,2013-03-10 04:38:00,
2013-03-09 23:43:00,28.2,25.9,30.32,ESE,110,0.0,0.0,91,0.00,,,0.03,WeatherCatV1.10B1784,2013-03-10 04:43:00,
2013-03-09 23:48:00,28.1,25.8,30.32,ESE,110,0.0,0.0,91,0.00,,,0.03,WeatherCatV1.10B1784,2013-03-10 04:48:00,
2013-03-09 23:53:00,28.1,25.8,30.32,ESE,110,0.0,0.0,91,0.00,,,0.03,WeatherCatV1.10B1784,2013-03-10 04:53:00,
2013-03-09 23:58:00,28.0,25.7,30.32,ESE,110,0.0,0.0,91,0.00,,,0.03,WeatherCatV1.10B1784,2013-03-10 04:58:00,